Lid_Strength_Index
-1 0 2 3 7 7 8 8 6 8 7 5 4 5 5 4 6 9 1 -0 -0 -0 -2 -2 -1 -1 -1 -1 -1 -1 -1 -1 -1 -1 -1 -1 -2 -1 -1 -1 -1 -1 -1 -1 -1 -1 -1 -1 -1
1 3 3 4 8 9 8 6 8 6 5 4 4 5 6 6 3 3 2 -0 -1 -1 -2 -2 -1 -1 -1 -1 -1 -1 -1 -1 -1 -1 -2 -2 -2 -1 -1 -1 -1 -1 -1 -1 -1 -1 -1 -1 -1
2 4 5 5 7 9 7 7 6 5 4 5 5 4 5 5 3 2 0 -0 -1 -1 -1 -2 -1 -1 -1 -1 -1 -1 -1 -1 -2 -2 -2 -2 -2 -2 -1 -1 -1 -1 -1 -1 -1 -1 -1 -1 -1
5 5 5 8 8 6 6 5 5 6 5 4 4 6 4 2 3 1 -0 -0 -0 -1 -1 -1 -1 -1 -1 -1 -1 -1 -1 -1 -1 -2 -2 -2 -1 -1 -2 -1 -1 -1 -1 -1 -1 -1 -1 -1 -1
5 5 8 8 7 6 5 4 5 6 5 5 5 6 5 2 1 0 0 -0 -0 -0 -1 -1 -1 -1 -1 -1 -1 -1 -1 -1 -1 -1 -1 -1 -1 -1 -1 -1 -1 -1 -1 -1 -1 -1 -1 -1 -1
6 5 8 9 7 6 5 4 4 5 5 5 5 5 5 2 2 1 -0 -0 -1 -0 -1 -1 -1 -1 -1 -1 -1 -1 -1 -1 -1 -1 -1 -1 -1 -1 -1 -1 -1 -1 -1 -1 -1 -1 -1 -1 -1
5 7 8 7 7 6 5 4 4 5 5 5 4 6 4 3 1 0 0 -0 -0 -1 -1 -1 -1 -1 -1 -1 -1 -1 -1 -1 -1 -1 -2 -1 -1 -1 -1 -1 -1 -1 -1 -1 -1 -1 -1 -1 -1
3 5 7 7 7 7 5 5 4 4 5 3 4 6 5 3 1 0 0 0 -0 -0 -1 -1 -1 -1 -2 -2 -1 -1 -1 -1 -1 -1 -1 -1 -1 -1 -1 -2 -1 -1 -1 -1 -1 -2 -1 -1 -1
2 6 8 7 7 6 5 5 4 3 4 5 4 3 3 1 1 1 1 1 1 0 -0 -1 -1 -1 -1 -1 -1 -1 -1 -1 -1 -1 -1 -2 -2 -2 -2 -1 -1 -1 -1 -1 -1 -1 -2 -2 -2
4 6 6 5 5 5 5 6 5 5 5 5 5 3 2 2 2 2 2 2 1 1 0 -0 -1 -1 -1 -1 -2 -2 -2 -2 -2 -2 -2 -2 -2 -2 -1 -1 -1 -0 0 -1 -1 -1 -3 -2 -2
4 6 5 4 4 4 6 6 6 6 6 5 6 4 3 3 3 3 2 2 2 1 0 -0 -1 -1 -1 -1 -1 -1 -1 -1 -2 -2 -2 -2 -1 -1 -1 -2 -2 -2 -1 -2 -2 -2 -2 -2 -2
6 4 4 4 4 4 5 6 7 6 5 4 4 3 3 3 3 3 2 2 1 1 1 -0 -1 -1 -1 -1 -1 -1 -1 -1 -1 -2 -2 -1 -1 -1 -2 -2 -2 -3 -2 -2 -2 -1 -2 -2 -1
6 5 5 4 4 4 4 6 7 7 5 4 4 3 3 3 3 2 2 1 1 1 1 0 -0 -1 -1 -1 -1 -1 -1 -1 -1 -1 -2 -1 -1 -1 -2 -2 -3 -2 -2 -2 -1 -1 -1 -1 -0
5 5 5 5 4 4 4 5 6 6 6 4 4 3 3 3 3 2 2 2 1 1 1 0 -0 -1 -1 -1 -1 -1 -1 -1 -1 -1 -1 -2 -2 -2 -1 -2 -2 -2 -2 -1 -1 -1 -1 -0 -0
5 7 6 5 5 5 4 6 6 5 6 6 4 3 3 3 2 3 2 2 1 1 1 0 -0 -1 -1 -1 -1 -1 -1 -1 -1 -1 -2 -2 -2 -2 -2 -1 -1 -2 -2 -2 -2 -1 -1 0 -0
6 6 8 6 5 5 5 8 5 4 5 6 5 4 3 3 2 2 1 1 1 0 1 0 -0 -0 -1 -1 -1 -1 -1 -1 -1 -2 -2 -2 -2 -2 -2 -1 -1 -1 -2 -1 -0 -0 0 0 -0
7 9 8 7 5 5 6 7 5 3 4 6 6 4 3 3 3 2 1 1 1 0 0 0 -0 -0 -0 -1 -1 -1 -1 -1 -1 -2 -2 -2 -1 -1 -1 -0 -1 -2 -1 -1 -0 -0 -0 0 -0
9 8 8 8 6 6 6 6 5 4 4 4 5 5 4 3 3 2 2 1 1 0 0 0 0 -0 -1 -0 -1 -0 -0 -1 -1 -1 -1 -2 -1 -1 -1 -1 -1 -2 -1 -0 -1 -1 -1 -0 -1
7 8 8 7 6 7 7 6 5 4 4 4 4 3 4 4 2 2 2 2 1 1 1 1 1 0 0 0 1 1 1 -0 -1 -1 -2 -2 -1 -1 -2 -1 -1 -2 -1 -1 -2 -1 -1 0 -1
8 8 8 7 6 7 7 7 5 5 4 4 4 3 3 4 3 3 2 2 2 1 1 1 1 0 0 0 0 0 0 -0 -0 -1 -2 -2 -1 -2 -1 -2 -1 -1 -1 -1 -1 -1 -0 0 -0
8 9 8 8 7 6 7 8 7 5 4 4 3 3 3 3 3 3 3 3 2 2 1 1 1 1 0 -0 -0 0 -0 -0 0 -0 -0 -1 -2 -1 -2 -2 -2 -1 -1 -0 -1 -1 -1 1 0
9 6 7 8 8 10 6 11 7 6 5 5 4 3 3 3 2 2 3 3 3 2 1 1 1 1 0 -0 0 1 2 2 1 0 -1 -1 -2 -2 -2 -2 -2 -2 -1 -1 -1 -1 -1 -1 1
8 6 7 8 8 8 9 10 8 6 7 6 4 4 3 2 2 2 2 2 2 2 2 1 1 1 0 0 0 1 1 1 0 0 -0 -1 -1 -2 -2 -2 -2 -1 -1 -1 -1 -1 -1 -0 0
5 6 7 7 8 12 9 10 10 8 7 6 4 4 3 3 2 2 1 2 2 2 2 1 1 1 1 1 1 1 1 1 1 1 1 0 -0 -1 -2 -2 -2 -2 -1 -1 -1 -1 -1 -1 -0
6 8 12 12 12 13 8 10 9 6 6 6 5 4 4 3 2 2 2 2 2 2 2 2 2 2 1 1 1 1 1 1 1 1 1 0 0 0 -1 -1 -1 -1 -2 -1 -1 -1 -1 -1 -0
7 8 11 15 14 12 8 11 9 6 5 5 5 4 4 4 3 3 2 2 2 2 2 2 2 2 1 1 1 1 0 1 1 0 0 0 0 -0 -1 -1 -1 -1 -2 -1 -1 -1 -1 -1 -1
8 10 7 10 10 12 10 8 7 6 6 6 5 5 4 4 3 3 2 2 2 1 1 1 2 2 1 1 1 1 0 0 1 1 -0 -0 -1 -1 -1 -1 -1 -1 -1 -1 -1 -0 -1 -1 -1
7 7 11 10 15 15 12 11 10 9 8 7 6 5 5 4 3 3 2 2 2 1 1 1 1 1 1 1 1 1 1 2 1 0 0 -0 -1 -1 -1 -1 -1 -1 -1 -1 -1 -1 -1 -1 -1
9 9 9 10 11 14 14 12 8 8 8 7 6 5 4 4 3 3 3 2 2 1 1 1 1 1 1 1 1 1 1 3 3 0 -0 0 -0 -1 -0 -1 -1 -1 -1 -1 -1 -1 -1 -0 -0
8 10 10 14 14 11 11 11 7 6 6 6 6 5 4 4 3 3 3 2 2 2 1 1 1 1 1 1 1 1 2 3 2 1 0 -0 0 -1 -1 -1 -0 -0 -0 -1 -0 -0 -0 -0 0